Location: Poznań
(52.4062°N, 16.9234°E)
Time: 05:50:44
(UTC+01:00)

ISS - Pass Details

Date: 02 February 2019
Orbit: 403 x 411 km, 51.6° (Epoch: 17 February)

Event Time Altitude Azimuth Distance (km) Brightness Sun altitude
Rises 19:40:59 0° 281° (WNW) 2,341 1.3 -27.6°
Reaches altitude 10° 19:43:10 10° 273° (W) 1,479 0.0 -27.9°
Enters shadow 19:44:18 18° 262° (W) 1,071 -1.0 -28.1°
